EW7149 Weather Reports


time (UTC)temp
C
wind
direction
speed
KPH
gust
KPH
rain 1hr
cm
rain 24hr
cm
rain mn
cm
humidity
%
barometer
mb
20260510072448 10 355 0.0 0.0 0.00 0.00 0.00 1 1010.5
20260510071957 10 355 0.0 0.0 0.00 0.00 0.00 1 1010.5
20260510071447 10 355 0.0 0.0 0.00 0.00 0.00 1 1010.4
20260510070938 10 355 0.0 0.0 0.00 0.00 0.00 1 1010.3
20260510070421 10 355 0.0 0.0 0.00 0.00 0.00 1 1010.4
20260510065905 10 355 0.0 0.0 0.00 0.00 0.00 1 1010.3
20260510065355 10 355 0.0 0.0 0.00 0.00 0.00 1 1010.2
20260510064904 10 355 0.0 0.0 0.00 0.00 0.00 1 1010.1
20260510063842 10 355 0.0 0.0 0.00 0.00 0.00 1 1009.9
20260510062815 10 355 0.0 0.0 0.00 0.00 0.00 1 1009.9
20260510062325 10 355 0.0 0.0 0.00 0.00 0.00 1 1009.9
20260510061819 10 355 0.0 0.0 0.00 0.00 0.00 1 1009.9
20260510061306 10 355 0.0 0.0 0.00 0.00 0.00 1 1010.0
20260510060759 10 355 0.0 0.0 0.00 0.00 0.00 1 1009.9
20260510060306 10 355 0.0 0.0 0.00 0.00 0.00 1 1009.9
20260510055306 10 355 0.0 0.0 0.00 0.00 0.00 1 1009.8
20260510054807 10 355 0.0 0.0 0.00 0.00 0.00 1 1009.9
20260510054303 10 355 0.0 0.0 0.00 0.00 0.00 1 1010.0
20260510053800 10 355 0.0 0.0 0.00 0.00 0.00 1 1010.0
20260510053250 10 355 0.0 0.0 0.00 0.00 0.00 1 1010.1
20260510052738 10 355 0.0 0.0 0.00 0.00 0.00 1 1010.0
20260510052243 10 355 0.0 0.0 0.00 0.00 0.00 1 1010.0
20260510051237 10 355 0.0 0.0 0.00 0.00 0.00 1 1010.0
20260510050720 11 355 0.0 0.0 0.00 0.00 0.00 1 1010.0
20260510050207 11 355 0.0 0.0 0.00 0.00 0.00 1 1010.1
20260510045716 11 355 0.0 0.0 0.00 0.00 0.00 1 1010.1
20260510045159 11 355 0.0 0.0 0.00 0.00 0.00 1 1010.1
20260510044642 11 355 0.0 0.0 0.00 0.00 0.00 1 1010.2
20260510044126 11 355 0.0 0.0 0.00 0.00 0.00 1 1010.2
20260510043619 11 355 0.0 0.0 0.00 0.00 0.00 1 1010.1
20260510043102 11 355 0.0 0.0 0.00 0.00 0.00 1 1010.2
20260510042549 11 355 0.0 0.0 0.00 0.00 0.00 1 1010.2
20260510042048 11 355 0.0 0.0 0.00 0.00 0.00 1 1010.2
20260510041537 11 355 0.0 0.0 0.00 0.00 0.00 1 1010.2
20260510041044 11 355 0.0 0.0 0.00 0.00 0.00 1 1010.1
20260510040530 11 355 0.0 0.0 0.00 0.00 0.00 1 1010.2
20260510040022 11 355 0.0 0.0 0.00 0.00 0.00 1 1010.1
20260510035520 11 355 0.0 0.0 0.00 0.00 0.00 1 1010.2
20260510035009 11 355 0.0 0.0 0.00 0.00 0.00 1 1010.1
20260510034022 12 355 0.0 0.0 0.00 0.00 0.00 1 1010.2
20260510033507 12 355 0.0 0.0 0.00 0.00 0.00 1 1010.2
20260510033016 12 355 0.0 0.0 0.00 0.00 0.00 1 1010.2
20260510032520 12 355 0.0 0.0 0.00 0.00 0.00 1 1010.2
20260510032005 12 355 0.0 0.0 0.00 0.00 0.00 1 1010.1
20260510031449 12 355 0.0 0.0 0.00 0.00 0.00 1 1010.2
20260510030948 12 355 0.0 0.0 0.00 0.00 0.00 1 1010.1
20260510030454 12 355 0.0 0.0 0.00 0.00 0.00 1 1010.1
20260510030002 12 355 0.0 0.0 0.00 0.00 0.00 1 1010.1
20260510025501 13 355 0.0 0.0 0.00 0.00 0.00 1 1010.0
20260510025000 13 355 0.0 0.0 0.00 0.00 0.00 1 1010.0
20260510024452 13 355 0.0 0.0 0.00 0.00 0.00 1 1010.0
20260510023936 13 355 0.0 0.0 0.00 0.00 0.00 1 1010.0
20260510023428 13 355 0.0 0.0 0.00 0.00 0.00 1 1009.9
20260510022417 13 355 0.0 0.0 0.00 0.00 0.00 9 1009.7
20260510021401 14 355 0.0 0.0 0.00 0.00 0.00 14 1009.7
20260510020857 14 355 0.0 0.0 0.00 0.00 0.00 18 1009.6
20260510020344 14 355 0.0 0.0 0.00 0.00 0.00 20 1009.6
20260510015838 14 355 0.0 0.0 0.00 0.00 0.00 19 1009.6
20260510015343 15 355 0.0 0.0 0.00 0.00 0.00 19 1009.6
20260510014319 15 355 0.0 0.0 0.00 0.00 0.00 18 1009.5
20260510013829 15 355 0.0 0.0 0.00 0.00 0.00 18 1009.5
20260510013337 15 355 0.0 0.0 0.00 0.00 0.00 21 1009.4
20260510012822 15 355 0.0 0.0 0.00 0.00 0.00 23 1009.3
20260510012327 15 355 0.0 0.0 0.00 0.00 0.00 24 1009.2
20260510011342 16 355 0.0 0.0 0.00 0.00 0.00 21 1009.0
20260510010845 16 355 0.0 0.0 0.00 0.00 0.00 22 1008.9
20260510010348 16 355 0.0 0.0 0.00 0.00 0.00 26 1008.8
20260510005858 16 355 0.0 0.0 0.00 0.00 0.00 30 1008.7
20260510005359 16 355 0.0 0.0 0.00 0.00 0.00 35 1008.7
20260510004404 16 355 0.0 0.0 0.00 0.00 0.00 36 1008.6
20260510003901 16 355 0.0 0.0 0.00 0.00 0.00 44 1008.5
20260510002847 17 355 0.0 0.0 0.00 0.00 0.00 53 1008.4
20260510002340 17 355 0.0 0.0 0.00 0.00 0.00 54 1008.5
20260510001841 17 355 0.0 0.0 0.00 0.00 0.00 55 1008.4
20260510001342 17 355 0.0 0.0 0.00 0.00 0.00 56 1008.5
20260510000326 18 355 0.0 0.0 0.00 0.00 0.00 57 1008.5
20260509235833 18 355 0.0 0.0 0.00 0.00 0.00 57 1008.5
20260509235320 18 355 0.0 0.0 0.00 0.00 0.00 58 1008.5
20260509234810 19 355 0.0 0.0 0.00 0.00 0.00 58 1008.4
20260509234304 19 355 0.0 0.0 0.00 0.00 0.00 58 1008.3
20260509233809 20 355 0.0 0.0 0.00 0.00 0.00 58 1008.3
20260509233303 20 355 0.0 0.0 0.00 0.00 0.00 58 1008.4
20260509232813 20 355 0.0 0.0 0.00 0.00 0.00 58 1008.2
20260509232255 20 255 0.0 0.0 0.00 0.00 0.00 57 1008.2
20260509231800 21 113 0.0 0.0 0.00 0.00 0.00 57 1008.2
20260509230803 21 113 0.0 0.0 0.00 0.00 0.00 57 1008.1
20260509230257 21 113 0.0 0.0 0.00 0.00 0.00 57 1008.1
20260509225803 21 113 0.0 0.0 0.00 0.00 0.00 57 1008.2
20260509224802 21 113 0.0 0.0 0.00 0.00 0.00 57 1008.0
20260509224308 21 113 0.0 0.0 0.00 0.00 0.00 57 1008.0
20260509223255 21 113 0.0 0.0 0.00 0.00 0.00 57 1008.1
20260509222746 21 113 0.0 0.0 0.00 0.00 0.00 57 1008.1
20260509222238 21 113 0.0 0.0 0.00 0.00 0.00 57 1008.1
20260509221743 21 113 0.0 0.0 0.00 0.00 0.00 57 1008.0
20260509220211 21 141 0.0 0.0 0.00 0.00 0.00 57 1008.1
20260509215700 21 141 0.0 0.0 0.00 0.00 0.00 57 1008.1
20260509214702 21 142 0.0 0.0 0.00 0.00 0.00 57 1008.2
20260509214159 20 92 0.0 0.0 0.00 0.00 0.00 57 1008.2
20260509213657 20 92 0.0 0.0 0.00 0.00 0.00 57 1008.2
20260509213138 20 103 0.0 0.0 0.00 0.00 0.00 57 1008.2
20260509212629 20 103 0.0 0.0 0.00 0.00 0.00 57 1008.2
20260509212123 20 103 0.0 0.0 0.00 0.00 0.00 57 1008.2
20260509211606 20 103 0.0 1.6 0.00 0.00 0.00 57 1008.3
20260509211113 20 84 0.0 0.0 0.00 0.00 0.00 58 1008.3
20260509210622 20 144 0.0 0.0 0.00 0.00 0.00 58 1008.3
20260509205058 20 144 0.0 3.2 0.00 0.00 0.00 57 1008.2
20260509204601 20 147 0.0 0.0 0.00 0.00 0.00 57 1008.1
20260509204056 20 147 0.0 0.0 0.00 0.00 0.00 57 1008.2
20260509203538 20 151 0.0 0.0 0.00 0.00 0.00 56 1008.2
20260509202520 20 182 0.0 1.6 0.00 0.00 0.00 57 1008.3
20260509202002 20 184 0.0 0.0 0.00 0.00 0.00 57 1008.2
20260509201506 20 184 0.0 0.0 0.00 0.00 0.00 57 1008.2
20260509201013 20 184 0.0 0.0 0.00 0.00 0.00 57 1008.2
20260509200517 20 184 0.0 0.0 0.00 0.00 0.00 57 1008.3
20260509200021 20 184 0.0 0.0 0.00 0.00 0.00 57 1008.2
20260509195531 20 184 0.0 0.0 0.00 0.00 0.00 57 1008.4
20260509195029 20 138 0.0 0.0 0.00 0.00 0.00 57 1008.4
20260509194515 20 225 0.0 0.0 0.00 0.00 0.00 57 1008.6
20260509193959 20 38 0.0 0.0 0.00 0.00 0.00 58 1008.6
20260509193000 20 38 0.0 0.0 0.00 0.00 0.00 57 1008.6
20260509192507 20 330 0.0 0.0 0.00 0.00 0.00 57 1008.7
20260509191453 20 329 0.0 0.0 0.00 0.00 0.00 56 1008.8
20260509190441 20 173 0.0 1.6 0.00 0.00 0.00 56 1008.9
20260509185934 20 180 0.0 0.0 0.00 0.00 0.00 56 1008.9
20260509185426 20 237 0.0 0.0 0.00 0.00 0.00 57 1008.9
20260509184932 20 123 0.0 0.0 0.00 0.00 0.00 57 1009.0
20260509184423 19 121 0.0 0.0 0.00 0.00 0.00 57 1009.0
20260509183920 19 119 0.0 1.6 0.00 0.00 0.00 57 1009.0
20260509183427 18 142 0.0 3.2 0.00 0.00 0.00 58 1009.0
20260509182908 18 306 0.0 0.0 0.00 0.00 0.00 58 1009.1
20260509182416 18 304 0.0 1.6 0.00 0.00 0.00 57 1009.2
20260509181905 18 287 0.0 0.0 0.00 0.00 0.00 57 1009.6
20260509180849 18 314 0.0 0.0 0.00 0.00 0.00 57 1009.8
20260509180358 18 266 0.0 0.0 0.00 0.00 0.00 58 1009.9
20260509175337 17 22 0.0 0.0 0.00 0.00 0.00 58 1009.9
20260509174832 17 340 0.0 1.6 0.00 0.00 0.00 57 1010.2
20260509173826 17 106 0.0 0.0 0.00 0.00 0.00 58 1010.5
20260509173332 17 106 0.0 0.0 0.00 0.00 0.00 57 1010.6
20260509171812 17 114 0.0 0.0 0.00 0.00 0.00 57 1010.4
20260509171259 17 105 0.0 1.6 0.00 0.00 0.00 57 1010.3
20260509170804 17 312 0.0 0.0 0.00 0.00 0.00 58 1010.3
20260509170308 17 299 0.0 0.0 0.00 0.00 0.00 58 1010.2
20260509165806 17 266 0.0 0.0 0.00 0.00 0.00 57 1010.4
20260509164739 18 279 0.0 0.0 0.00 0.00 0.00 56 1010.4
20260509164243 18 279 0.0 0.0 0.00 0.00 0.00 57 1010.3
20260509163749 18 279 0.0 0.0 0.00 0.00 0.00 55 1010.5
20260509163253 18 279 0.0 1.6 0.00 0.00 0.00 56 1010.4
20260509162749 18 290 0.0 1.6 0.00 0.00 0.00 56 1010.4
20260509162232 18 345 0.0 0.0 0.00 0.00 0.00 55 1010.5
20260509161722 18 239 0.0 4.8 0.00 0.00 0.00 56 1010.5
20260509161204 18 283 0.0 0.0 0.00 0.00 0.00 57 1010.5
20260509160658 18 283 0.0 0.0 0.00 0.00 0.00 56 1010.5
20260509160158 17 265 0.0 0.0 0.00 0.00 0.00 56 1010.4
20260509155647 17 265 0.0 0.0 0.00 0.00 0.00 56 1010.5
20260509155139 18 246 0.0 0.0 0.00 0.00 0.00 57 1010.4
20260509154643 18 225 0.0 0.0 0.00 0.00 0.00 56 1010.5
20260509154140 18 196 0.0 0.0 0.00 0.00 0.00 56 1010.5
20260509153110 17 61 0.0 0.0 0.00 0.00 0.00 58 1010.6
20260509152614 17 61 0.0 0.0 0.00 0.00 0.00 58 1010.6
20260509152057 17 27 0.0 0.0 0.00 0.00 0.00 57 1010.7
20260509151037 16 168 0.0 0.0 0.00 0.00 0.00 58 1010.8
20260509150518 16 169 0.0 0.0 0.00 0.00 0.00 56 1011.0
20260509150007 15 168 0.0 0.0 0.00 0.00 0.00 55 1011.1
20260509145448 15 168 0.0 0.0 0.00 0.00 0.00 55 1011.2
20260509144942 15 168 0.0 0.0 0.00 0.00 0.00 55 1011.0
20260509143947 15 168 0.0 0.0 0.00 0.00 0.00 57 1011.0
20260509142924 15 168 0.0 0.0 0.00 0.00 0.00 58 1011.2
20260509142423 15 168 0.0 0.0 0.00 0.00 0.00 57 1011.0
20260509141412 15 148 0.0 0.0 0.00 0.00 0.00 58 1011.0
20260509140922 15 148 0.0 0.0 0.00 0.00 0.00 58 1010.9
20260509140424 14 148 0.0 0.0 0.00 0.00 0.00 58 1010.8
20260509135923 14 148 0.0 0.0 0.00 0.00 0.00 58 1010.8
20260509134426 14 145 0.0 1.6 0.00 0.00 0.00 58 1010.8
20260509133435 14 150 0.0 0.0 0.00 0.00 0.00 58 1010.7
20260509132926 14 148 0.0 1.6 0.00 0.00 0.00 58 1010.6
20260509132422 14 148 0.0 0.0 0.00 0.00 0.00 58 1010.6
20260509131908 14 159 0.0 0.0 0.00 0.00 0.00 58 1010.6
20260509131417 14 161 0.0 0.0 0.00 0.00 0.00 58 1010.6
20260509130412 14 144 0.0 0.0 0.00 0.00 0.00 59 1010.7
20260509125912 14 148 0.0 6.4 0.00 0.00 0.00 59 1010.7
20260509125402 14 160 0.0 0.0 0.00 0.00 0.00 59 1010.9
20260509124908 14 163 0.0 0.0 0.00 0.00 0.00 59 1010.9
20260509124357 13 140 0.0 0.0 0.00 0.00 0.00 59 1010.8
20260509123851 13 140 0.0 1.6 0.00 0.00 0.00 59 1010.8
20260509123353 13 158 0.0 0.0 0.00 0.00 0.00 59 1010.9
20260509122323 13 157 0.0 0.0 0.00 0.00 0.00 59 1010.8
20260509121326 13 164 0.0 0.0 0.00 0.00 0.00 59 1010.9
20260509120808 13 163 0.0 0.0 0.00 0.00 0.00 59 1010.9
20260509120313 13 155 0.0 0.0 0.00 0.00 0.00 59 1010.9
20260509115819 13 154 0.0 0.0 0.00 0.00 0.00 59 1010.9
20260509115327 13 150 0.0 3.2 0.00 0.00 0.00 59 1010.8
20260509114828 13 152 0.0 0.0 0.00 0.00 0.00 59 1010.8
20260509114336 13 150 0.0 0.0 0.00 0.00 0.00 59 1010.8
20260509113825 13 150 0.0 6.4 0.00 0.00 0.00 59 1010.8
20260509113316 13 147 0.0 1.6 0.00 0.00 0.00 59 1010.7
20260509112813 13 146 0.0 0.0 0.00 0.00 0.00 59 1010.5
20260509112308 13 146 0.0 0.0 0.00 0.00 0.00 59 1010.5
20260509111307 13 151 0.0 0.0 0.00 0.00 0.00 59 1010.4
20260509110757 13 152 0.0 0.0 0.00 0.00 0.00 59 1010.2
20260509110259 12 152 0.0 0.0 0.00 0.00 0.00 59 1010.2
20260509104814 12 161 0.0 0.0 0.00 0.00 0.00 59 1010.0
20260509104319 12 161 0.0 0.0 0.00 0.00 0.00 59 1010.0
20260509103813 12 165 0.0 0.0 0.00 0.00 0.00 59 1010.1
20260509103302 12 165 0.0 0.0 0.00 0.00 0.00 59 1010.1
20260509102811 12 165 0.0 0.0 0.00 0.00 0.00 59 1010.1
20260509102317 12 165 0.0 0.0 0.00 0.00 0.00 59 1010.1
20260509101307 12 142 0.0 0.0 0.00 0.00 0.00 59 1010.2
20260509100801 12 167 0.0 0.0 0.00 0.00 0.00 59 1010.1
20260509100255 12 167 0.0 0.0 0.00 0.00 0.00 59 1010.1
20260509095248 12 159 0.0 0.0 0.00 0.00 0.00 59 1010.0
20260509094258 12 163 0.0 0.0 0.00 0.00 0.00 59 1010.0
20260509093754 12 149 0.0 0.0 0.00 0.00 0.00 59 1010.0
20260509092744 12 150 0.0 0.0 0.00 0.00 0.00 59 1010.2
20260509092245 12 150 0.0 0.0 0.00 0.00 0.00 59 1010.1
20260509091738 12 155 0.0 0.0 0.00 0.00 0.00 59 1010.1
20260509090730 12 184 0.0 12.9 0.00 0.00 0.00 59 1010.2
20260509090221 12 151 0.0 0.0 0.00 0.00 0.00 59 1010.2
20260509085730 12 157 0.0 0.0 0.00 0.00 0.00 59 1010.2
20260509085218 12 164 0.0 9.7 0.00 0.00 0.00 59 1010.4
20260509084716 12 133 0.0 1.6 0.00 0.00 0.00 59 1010.5
20260509084201 12 145 0.0 0.0 0.00 0.00 0.00 59 1010.5
20260509082200 12 152 0.0 8.0 0.00 0.00 0.00 59 1010.5
20260509081145 12 150 0.0 6.4 0.00 0.00 0.00 59 1010.5
20260509080644 12 159 0.0 0.0 0.00 0.00 0.00 59 1010.6
20260509075641 12 163 0.0 1.6 0.00 0.00 0.00 59 1010.6
20260509075132 12 146 0.0 3.2 0.00 0.00 0.00 59 1010.7
20260509074615 12 159 0.0 1.6 0.00 0.00 0.00 59 1010.8
20260509074115 12 155 0.0 4.8 0.00 0.00 0.00 58 1010.7
20260509073610 12 167 0.0 0.0 0.00 0.00 0.00 58 1010.7
20260509073057 12 159 0.0 0.0 0.00 0.00 0.00 58 1010.7